Weather History for KHSV - April, 2013

Change the Weather History Date:

Wednesday, April 24, 2013

  Actual Average Record
Temperature  
Mean Temperature 57 °F 64 °F  
Max Temperature 66 °F 76 °F 91 °F (1960)
Min Temperature 48 °F 53 °F 32 °F (1910)
Degree Days  
Heating Degree Days 8 3  
Month to date heating degree days 146 138  
Since 1 July heating degree days 2954 2958  
Cooling Degree Days 0 3  
Month to date cooling degree days 51 40  
Year to date cooling degree days 57 54  
Growing Degree Days 7 (Base 50)    
Moisture  
Dew Point 52 °F    
Average Humidity 84    
Maximum Humidity 100    
Minimum Humidity 67    
Precipitation  
Precipitation 0.29 in 0.15 in 1.93 in (1937)
Month to date precipitation 3.33 3.42  
Year to date precipitation 20.76 18.36  
Snow  
Snow 0.00 in - - ()
Month to date snowfall 0.0  
Since 1 July snowfall 0.7  
Snow Depth 0.00 in    
Sea Level Pressure  
Sea Level Pressure 30.10 in    
Wind  
Wind Speed 10 mph (WNW)    
Max Wind Speed 21 mph    
Max Gust Speed 26 mph    
Visibility 8 miles    
Events Rain    
T = Trace of Precipitation, MM = Missing Value Source: NWS Daily Summary

Daily Weather History Graph

Daily Weather History Graph

Search for Another Location

Airport or City:

Trip Planner

Search our weather history database for the weather conditions in past years. The results will help you decide how hot, cold, wet, or windy it might be!

Date:

Astronomy

Apr. 24, 2013 Rise Set
Actual Time 6:04 AM CDT 7:26 PM CDT
Civil Twilight 5:37 AM CDT 7:53 PM CDT
Nautical Twilight 5:06 AM CDT 8:24 PM CDT
Astronomical Twilight 4:33 AM CDT 8:58 PM CDT
Moon 6:30 PM CDT (4/24) 5:04 AM CDT (4/24)
Length of Visible Light 14h 15m
Length of Day
13h 22m
Waxing Gibbous, 98% of the Moon is Illuminated
Apr 24
Waxing Gibbous
Apr 25
Full
May 2
Last Quarter
May 9
New
May 17
First Quarter

Hourly Weather History & Observations

Time (CDT) Temp. Dew Point Humidity Pressure Visibility Wind Dir Wind Speed Gust Speed Precip Events Conditions
12:53 AM 64.9 °F 54.0 °F 68% 30.01 in 10.0 mi SSE 9.2 mph - N/A   Overcast
1:53 AM 64.9 °F 54.0 °F 68% 30.00 in 10.0 mi South 8.1 mph - N/A   Mostly Cloudy
2:53 AM 64.0 °F 54.0 °F 70% 29.98 in 10.0 mi South 9.2 mph - N/A   Clear
3:53 AM 64.9 °F 55.0 °F 70% 29.98 in 10.0 mi SSW 10.4 mph - N/A   Clear
4:53 AM 64.4 °F 55.4 °F 73% 30.00 in 10.0 mi SSW 13.8 mph - N/A   Clear
5:53 AM 64.0 °F 57.0 °F 78% 29.98 in 10.0 mi SSW 15.0 mph - N/A   Mostly Cloudy
6:53 AM 64.0 °F 57.0 °F 78% 29.98 in 10.0 mi South 16.1 mph - N/A   Mostly Cloudy
7:53 AM 66.0 °F 57.0 °F 73% 29.98 in 10.0 mi South 15.0 mph 23.0 mph N/A   Mostly Cloudy
8:53 AM 64.9 °F 57.0 °F 75% 30.02 in 10.0 mi SSW 12.7 mph 19.6 mph N/A   Overcast
9:32 AM 64.4 °F 57.2 °F 77% 30.04 in 10.0 mi SSW 16.1 mph 21.9 mph 0.00 in   Overcast
9:53 AM 64.9 °F 57.9 °F 78% 30.04 in 10.0 mi SW 12.7 mph - 0.00 in   Overcast
10:16 AM 62.6 °F 60.8 °F 94% 30.07 in 1.5 mi WSW 15.0 mph - 0.01 in Rain Rain
10:20 AM 62.6 °F 60.8 °F 94% 30.08 in 2.0 mi WSW 18.4 mph 25.3 mph 0.06 in Rain Heavy Rain
10:29 AM 62.6 °F 60.8 °F 94% 30.09 in 6.0 mi West 12.7 mph 25.3 mph 0.06 in Rain Light Rain
10:36 AM 60.8 °F 60.8 °F 100% 30.10 in 7.0 mi West 8.1 mph - 0.07 in Rain Light Rain
10:53 AM 61.0 °F 60.1 °F 97% 30.09 in 2.5 mi West 3.5 mph - 0.10 in Rain Heavy Rain
11:02 AM 60.8 °F 59.0 °F 94% 30.09 in 3.0 mi WNW 3.5 mph - 0.04 in Rain Rain
11:53 AM 61.0 °F 60.1 °F 97% 30.09 in 6.0 mi SW 4.6 mph - 0.13 in Rain Light Rain
12:18 PM 60.8 °F 59.0 °F 94% 30.09 in 6.0 mi West 9.2 mph - 0.03 in Rain Light Rain
12:29 PM 59.0 °F 57.2 °F 94% 30.11 in 7.0 mi West 11.5 mph 18.4 mph 0.05 in Rain Light Rain
12:42 PM 57.2 °F 55.4 °F 94% 30.11 in 10.0 mi WNW 12.7 mph 20.7 mph 0.05 in Rain Light Rain
12:53 PM 55.0 °F 54.0 °F 96% 30.11 in 9.0 mi WNW 15.0 mph 24.2 mph 0.05 in Rain Light Rain
1:37 PM 51.8 °F 48.2 °F 88% 30.13 in 10.0 mi NW 9.2 mph 21.9 mph 0.00 in   Overcast
1:47 PM 51.8 °F 48.2 °F 88% 30.12 in 10.0 mi NNW 9.2 mph - 0.00 in   Overcast
1:53 PM 53.1 °F 48.9 °F 86% 30.12 in 10.0 mi NNW 9.2 mph - 0.00 in   Overcast
2:25 PM 51.8 °F 48.2 °F 88% 30.13 in 10.0 mi WNW 5.8 mph - N/A   Overcast
2:53 PM 52.0 °F 48.0 °F 86% 30.14 in 10.0 mi NW 10.4 mph - N/A   Overcast
3:31 PM 51.8 °F 48.2 °F 88% 30.15 in 3.0 mi NW 8.1 mph - 0.01 in Rain Light Rain
3:45 PM 51.8 °F 50.0 °F 94% 30.15 in 3.0 mi WNW 6.9 mph - 0.01 in Rain Light Rain
3:53 PM 52.0 °F 50.0 °F 93% 30.14 in 3.0 mi NW 6.9 mph - 0.01 in Rain Light Rain
4:18 PM 53.6 °F 50.0 °F 88% 30.16 in 7.0 mi NNW 8.1 mph - 0.00 in   Overcast
4:30 PM 53.6 °F 50.0 °F 88% 30.16 in 10.0 mi NNW 5.8 mph - 0.00 in   Overcast
4:53 PM 53.1 °F 50.0 °F 89% 30.16 in 10.0 mi NNW 4.6 mph - 0.00 in   Overcast
5:08 PM 53.6 °F 50.0 °F 88% 30.17 in 10.0 mi NNW 6.9 mph - N/A   Overcast
5:53 PM 53.1 °F 46.9 °F 80% 30.17 in 10.0 mi NNW 11.5 mph - N/A   Overcast
6:53 PM 52.0 °F 45.0 °F 77% 30.19 in 10.0 mi North 5.8 mph - N/A   Overcast
7:53 PM 51.1 °F 44.1 °F 77% 30.20 in 10.0 mi North 9.2 mph - N/A   Mostly Cloudy
8:53 PM 48.0 °F 42.1 °F 80% 30.22 in 10.0 mi NNW 6.9 mph - N/A   Scattered Clouds
9:53 PM 48.9 °F 41.0 °F 74% 30.24 in 10.0 mi NNE 12.7 mph - N/A   Mostly Cloudy
10:53 PM 48.9 °F 39.9 °F 71% 30.26 in 10.0 mi North 10.4 mph - N/A   Overcast
11:53 PM 48.0 °F 39.9 °F 74% 30.27 in 10.0 mi North 9.2 mph - N/A   Overcast